Weather History for Mansfield, OH

Change the Weather History Date:

Wednesday, September 26, 2012

  Actual Average Record
Temperature  
Mean Temperature 61 °F 59 °F  
Max Temperature 65 °F 69 °F 87 °F (1998)
Min Temperature 56 °F 49 °F 22 °F (1947)
Degree Days  
Heating Degree Days 4 7  
Month to date heating degree days 117 92  
Since 1 July heating degree days 121 117  
Cooling Degree Days 0 1  
Month to date cooling degree days 82 60  
Year to date cooling degree days 947 622  
Growing Degree Days 10 (Base 50)    
Moisture  
Dew Point 61 °F    
Average Humidity 95    
Maximum Humidity 100    
Minimum Humidity 90    
Precipitation  
Precipitation 0.97 in 0.11 in 1.23 in (1970)
Month to date precipitation 6.29 2.91  
Year to date precipitation 27.76 33.74  
Snow  
Snow 0.00 in 0.00 in - ()
Month to date snowfall 0.0 0.0  
Since 1 July snowfall 0.0 0.0  
Since 1 September snowfall 0.0 0.0  
Snow Depth 0.00 in    
Sea Level Pressure  
Sea Level Pressure 30.04 in    
Wind  
Wind Speed 8 mph (SSW)    
Max Wind Speed 18 mph    
Max Gust Speed 28 mph    
Visibility 6 miles    
Events Fog , Rain , Thunderstorm    
T = Trace of Precipitation, MM = Missing Value Source: NWS Daily Summary

Daily Weather History Graph

Daily Weather History Graph

Search for Another Location

Airport:

Trip Planner

Search our weather history database for the weather conditions in past years. The results will help you decide how hot, cold, wet, or windy it might be!

Date:

Astronomy

Sep. 26, 2012 Rise Set
Actual Time 7:22 AM EDT 7:19 PM EDT
Civil Twilight 6:54 AM EDT 7:46 PM EDT
Nautical Twilight 6:22 AM EDT 8:18 PM EDT
Astronomical Twilight 5:50 AM EDT 8:51 PM EDT
Moon 5:19 PM EDT (9/26) 3:45 AM EDT (9/26)
Length of Visible Light 12h 52m
Length of Day
11h 57m
Waxing Gibbous, 88% of the Moon is Illuminated
Sep 26
Waxing Gibbous
Sep 29
Full
Oct 8
Last Quarter
Oct 15
New
Oct 21
First Quarter

Hourly Weather History & Observations

Time (EDT) Temp. Dew Point Humidity Pressure Visibility Wind Dir Wind Speed Gust Speed Precip Events Conditions
12:42 AM 60.8 °F 59.0 °F 94% 29.99 in 9.0 mi South 8.1 mph - N/A   Overcast
12:52 AM 60.1 °F 59.0 °F 96% 29.98 in 8.0 mi South 6.9 mph - N/A   Overcast
1:15 AM 60.8 °F 59.0 °F 94% 29.99 in 10.0 mi South 6.9 mph - N/A   Overcast
1:52 AM 60.1 °F 57.9 °F 93% 29.97 in 10.0 mi South 9.2 mph - N/A   Overcast
2:41 AM 60.8 °F 57.2 °F 88% 29.97 in 10.0 mi South 8.1 mph - N/A   Overcast
2:52 AM 60.1 °F 57.9 °F 93% 29.96 in 10.0 mi South 9.2 mph - N/A   Overcast
3:15 AM 60.8 °F 57.2 °F 88% 29.97 in 10.0 mi South 12.7 mph - N/A   Overcast
3:35 AM 60.8 °F 59.0 °F 94% 29.97 in 10.0 mi SSW 13.8 mph - 0.01 in Rain , Thunderstorm Light Thunderstorms and Rain
3:49 AM 60.8 °F 60.8 °F 100% 29.97 in 1.8 mi SSW 16.1 mph 21.9 mph 0.08 in Rain , Thunderstorm Heavy Thunderstorms and Rain
3:52 AM 61.0 °F 60.1 °F 97% 29.96 in 1.2 mi SSW 12.7 mph 21.9 mph 0.20 in Rain , Thunderstorm Heavy Thunderstorms and Rain
4:00 AM 60.8 °F 60.8 °F 100% 29.97 in 3.0 mi SSW 9.2 mph - 0.09 in Rain , Thunderstorm Light Thunderstorms and Rain
4:28 AM 62.6 °F 60.8 °F 94% 29.96 in 10.0 mi SW 11.5 mph - 0.10 in   Mostly Cloudy
4:52 AM 62.1 °F 61.0 °F 96% 29.96 in 10.0 mi WSW 8.1 mph 18.4 mph 0.10 in   Mostly Cloudy
5:52 AM 62.1 °F 61.0 °F 96% 29.96 in 10.0 mi SSW 8.1 mph - N/A   Scattered Clouds
6:09 AM 62.6 °F 60.8 °F 94% 29.97 in 10.0 mi SSW 8.1 mph - N/A   Mostly Cloudy
6:24 AM 62.6 °F 60.8 °F 94% 29.97 in 10.0 mi SSW 8.1 mph - N/A   Overcast
6:52 AM 61.0 °F 60.1 °F 97% 29.98 in 8.0 mi SSW 10.4 mph - N/A   Mostly Cloudy
7:52 AM 61.0 °F 60.1 °F 97% 29.99 in 7.0 mi SSW 10.4 mph - N/A   Scattered Clouds
8:52 AM 61.0 °F 61.0 °F 100% 30.01 in 5.0 mi SSW 11.5 mph - 0.07 in Rain Light Rain
9:07 AM 60.8 °F 60.8 °F 100% 30.02 in 8.0 mi South 15.0 mph - 0.01 in   Overcast
9:39 AM 62.6 °F 60.8 °F 94% 30.02 in 10.0 mi SSW 10.4 mph 19.6 mph 0.01 in   Overcast
9:48 AM 62.6 °F 60.8 °F 94% 30.02 in 10.0 mi SSW 11.5 mph - 0.01 in   Mostly Cloudy
9:52 AM 62.1 °F 60.1 °F 93% 30.01 in 10.0 mi SSW 11.5 mph - 0.01 in   Overcast
10:52 AM 62.1 °F 60.1 °F 93% 30.03 in 10.0 mi SSW 12.7 mph - 0.01 in   Overcast
11:35 AM 62.6 °F 60.8 °F 94% 30.04 in 1.8 mi SW 11.5 mph 27.6 mph 0.07 in Rain Heavy Rain
11:52 AM 62.1 °F 61.0 °F 96% 30.03 in 3.0 mi SSW 13.8 mph 20.7 mph 0.11 in Rain Light Rain
12:06 PM 62.6 °F 62.6 °F 100% 30.03 in 3.0 mi SW 13.8 mph - 0.01 in Rain Light Rain
12:43 PM 62.6 °F 62.6 °F 100% 30.04 in 1.8 mi SW 11.5 mph - 0.08 in Rain Heavy Rain
12:48 PM 62.6 °F 62.6 °F 100% 30.04 in 2.0 mi SW 11.5 mph - 0.11 in Rain Rain
12:52 PM 62.1 °F 62.1 °F 100% 30.03 in 3.0 mi SW 9.2 mph - 0.13 in Rain Rain
1:52 PM 64.0 °F 63.0 °F 96% 30.03 in 10.0 mi WSW 10.4 mph 18.4 mph 0.07 in   Overcast
2:45 PM 64.4 °F 62.6 °F 94% 30.04 in 7.0 mi SW 10.4 mph - 0.02 in Rain Light Rain
2:52 PM 64.0 °F 63.0 °F 96% 30.04 in 9.0 mi SW 9.2 mph - 0.02 in Rain Light Rain
3:32 PM 62.6 °F 62.6 °F 100% 30.05 in 2.5 mi WSW 6.9 mph 18.4 mph 0.04 in Rain Rain
3:42 PM 62.6 °F 62.6 °F 100% 30.06 in 2.5 mi WSW 9.2 mph 17.3 mph 0.09 in Rain Rain
3:49 PM 62.6 °F 62.6 °F 100% 30.06 in 4.0 mi WSW 9.2 mph - 0.11 in Rain Rain
3:52 PM 63.0 °F 63.0 °F 100% 30.05 in 4.0 mi WSW 9.2 mph - 0.11 in Rain Light Rain
4:52 PM 64.0 °F 64.0 °F 100% 30.05 in 9.0 mi SW 8.1 mph - 0.11 in Rain Light Rain
5:07 PM 64.4 °F 62.6 °F 94% 30.06 in 10.0 mi SSW 9.2 mph - 0.00 in   Overcast
5:15 PM 64.4 °F 62.6 °F 94% 30.06 in 10.0 mi SW 5.8 mph - 0.00 in   Overcast
5:52 PM 63.0 °F 63.0 °F 100% 30.06 in 9.0 mi WSW 6.9 mph 19.6 mph 0.00 in Rain Light Rain
6:09 PM 62.6 °F 62.6 °F 100% 30.05 in 10.0 mi WSW 4.6 mph - 0.01 in   Overcast
6:52 PM 63.0 °F 62.1 °F 97% 30.04 in 10.0 mi South 8.1 mph - 0.01 in Rain Light Rain
7:42 PM 62.6 °F 62.6 °F 100% 30.08 in 10.0 mi South 8.1 mph - 0.02 in Rain Light Rain
7:52 PM 63.0 °F 63.0 °F 100% 30.08 in 10.0 mi SSW 6.9 mph - 0.02 in   Overcast
8:52 PM 62.1 °F 62.1 °F 100% 30.09 in 10.0 mi SW 3.5 mph - N/A   Overcast
9:52 PM 62.1 °F 61.0 °F 96% 30.11 in 7.0 mi SSW 3.5 mph - N/A   Overcast
10:28 PM 60.8 °F 60.8 °F 100% 30.11 in 1.8 mi Calm Calm - N/A   Overcast
10:34 PM 60.8 °F 60.8 °F 100% 30.11 in 0.8 mi Calm Calm - N/A   Overcast
10:44 PM 60.8 °F 60.8 °F 100% 30.11 in 2.5 mi Calm Calm - N/A   Mostly Cloudy
10:52 PM 60.8 °F 60.8 °F 100% 30.12 in 2.5 mi Calm Calm - N/A   Scattered Clouds
11:00 PM 60.8 °F 60.8 °F 100% 30.12 in 1.0 mi Calm Calm - N/A   Partly Cloudy
11:07 PM 60.8 °F 60.8 °F 100% 30.12 in 3.0 mi Calm Calm - N/A   Clear
11:12 PM 60.8 °F 60.8 °F 100% 30.12 in 1.5 mi Calm Calm - N/A   Clear
11:25 PM 60.8 °F 60.8 °F 100% 30.12 in 3.0 mi Calm Calm - N/A   Clear
11:34 PM 60.8 °F 60.8 °F 100% 30.12 in 1.2 mi Calm Calm - N/A   Partly Cloudy
11:41 PM 55.4 °F 55.4 °F 100% 30.12 in 0.2 mi Calm Calm - N/A Fog Fog
11:52 PM 57.9 °F 57.9 °F 100% 30.12 in 0.2 mi Calm Calm - N/A Fog Fog